Zurück zum Katalog

STARLINK-6247

AktivKommunikationVLEO
NORAD 57086·PAYLOAD·🇺🇸 United States

Gestartet Jun 22, 2023 von Vandenberg Space Force Base

Loading…

Nächste Überflüge (nächste 24 Stunden)

TLE

AktuellSource: CelesTrak SupGP

Epoche: Sep 15, 2026, 01:42 UTC

1 57086C 23088AQ  26258.07131944  .00046472  00000+0  16836-2 0  2585
2 57086  43.0000 106.5064 0001391 259.2829 145.9047 15.27548278    18

Verfolge STARLINK-6247 in Echtzeit mit AllMySat

Download on the App Store